EW6113 Weather Reports


Display with metric or nautical units.
time (UTC)temp
F
wind
direction
speed
MPH
gust
MPH
rain 1hr
in
rain 24hr
in
rain mn
in
humidity
%
barometer
mb
20260901113041 56 65 0.0 2.0 0.00 0.00 0.00 90 1015.2
20260901111542 56 65 1.0 2.0 0.00 0.00 0.00 90 1015.3
20260901110038 57 65 0.0 1.0 0.00 0.00 0.00 89 1015.2
20260901104542 58 65 0.0 0.0 0.00 0.00 0.00 89 1015.1
20260901103036 58 65 0.0 2.0 0.00 0.00 0.00 90 1015.2
20260901101536 58 65 1.0 3.0 0.00 0.00 0.00 90 1015.1
20260901100036 58 65 2.0 4.0 0.00 0.00 0.00 90 1015.0
20260901094534 58 65 1.0 4.0 0.00 0.00 0.00 90 1015.1
20260901093032 58 72 1.0 3.0 0.00 0.00 0.00 91 1015.2
20260901091532 58 81 3.0 7.0 0.00 0.00 0.00 91 1015.2
20260901090029 58 55 2.0 4.0 0.00 0.00 0.00 92 1015.2
20260901084527 57 215 0.0 2.0 0.00 0.00 0.00 93 1015.2
20260901083025 56 215 0.0 2.0 0.00 0.00 0.00 93 1015.2
20260901081521 55 215 0.0 0.0 0.00 0.00 0.00 93 1015.1
20260901080021 55 215 0.0 1.0 0.00 0.00 0.00 92 1015.1
20260901074520 55 215 0.0 2.0 0.00 0.00 0.00 92 1015.0
20260901073027 55 215 0.0 0.0 0.00 0.00 0.00 91 1015.1
20260901071517 55 215 0.0 1.0 0.00 0.00 0.00 91 1015.0
20260901070015 55 215 0.0 0.0 0.00 0.00 0.00 91 1015.0
20260901064515 55 215 0.0 0.0 0.00 0.00 0.00 91 1015.0
20260901063015 56 215 0.0 2.0 0.00 0.00 0.00 91 1015.0
20260901061519 56 215 0.0 0.0 0.00 0.00 0.00 91 1015.2
20260901060013 55 215 0.0 1.0 0.00 0.00 0.00 91 1015.1
20260901054513 55 215 0.0 0.0 0.00 0.00 0.00 89 1015.1
20260901053014 56 215 0.0 0.0 0.00 0.00 0.00 89 1014.9
20260901051509 56 215 0.0 2.0 0.00 0.00 0.00 88 1014.9
20260901050009 57 338 0.0 1.0 0.00 0.00 0.00 88 1014.8
20260901044510 58 339 0.0 3.0 0.00 0.00 0.00 88 1014.7
20260901043009 58 60 0.0 0.0 0.00 0.00 0.00 88 1014.7
20260901041507 58 60 0.0 4.0 0.00 0.00 0.00 87 1014.5
20260901040007 58 65 2.0 6.0 0.00 0.00 0.00 87 1014.6
20260901034506 58 74 2.0 5.0 0.00 0.00 0.00 87 1014.5
20260901033011 59 49 2.0 5.0 0.00 0.00 0.00 86 1014.4
20260901031504 59 71 2.0 6.0 0.00 0.00 0.00 86 1014.1
20260901030005 59 93 4.0 7.0 0.00 0.00 0.00 85 1013.7
20260901024505 59 98 4.0 6.0 0.00 0.00 0.00 84 1013.6
20260901023002 60 78 2.0 7.0 0.00 0.00 0.00 83 1013.6
20260901021502 60 74 4.0 7.0 0.00 0.00 0.00 82 1013.6
20260901020002 61 63 5.0 11.0 0.00 0.00 0.00 81 1013.6
20260901014501 61 76 6.0 13.0 0.00 0.00 0.00 81 1013.6
20260901013100 61 92 6.0 13.0 0.00 0.00 0.00 80 1013.7
20260901011600 62 119 5.0 14.0 0.00 0.00 0.00 80 1013.5
20260901010059 62 125 7.0 13.0 0.00 0.00 0.00 79 1013.6
20260901004606 63 55 7.0 11.0 0.00 0.00 0.00 78 1013.7
20260901003056 63 113 10.0 13.0 0.00 0.00 0.00 76 1013.8
20260901001556 63 126 9.0 14.0 0.00 0.00 0.00 77 1013.9
20260901000109 63 107 8.0 14.0 0.00 0.00 0.00 76 1013.9
20260831234558 63 105 7.0 14.0 0.00 0.00 0.00 77 1013.8
20260831233054 64 101 8.0 14.0 0.00 0.00 0.00 75 1014.0
20260831231554 65 103 7.0 13.0 0.00 0.00 0.00 75 1014.1
20260831230053 64 70 7.0 15.0 0.00 0.00 0.00 76 1014.4
20260831224554 64 54 7.0 15.0 0.00 0.00 0.00 76 1014.5
20260831223057 64 98 9.0 15.0 0.00 0.00 0.00 75 1014.5
20260831221550 64 132 8.0 14.0 0.00 0.00 0.00 76 1014.7
20260831220050 64 63 7.0 16.0 0.00 0.00 0.00 75 1014.8
20260831214552 64 65 8.0 16.0 0.00 0.00 0.00 75 1014.8
20260831213054 64 98 9.0 15.0 0.00 0.00 0.00 74 1014.8
20260831211546 64 90 7.0 14.0 0.00 0.00 0.00 74 1014.9
20260831210044 64 53 7.0 13.0 0.00 0.00 0.00 74 1014.9
20260831204544 63 65 8.0 15.0 0.00 0.00 0.00 75 1015.0
20260831203042 63 138 8.0 13.0 0.00 0.00 0.00 75 1014.9
20260831201541 63 128 5.0 11.0 0.00 0.00 0.00 76 1015.0
20260831200043 63 139 8.0 14.0 0.00 0.00 0.00 75 1015.1
20260831194610 62 57 7.0 13.0 0.00 0.00 0.00 75 1015.1
20260831193038 63 86 5.0 13.0 0.00 0.00 0.00 76 1015.2
20260831191535 62 94 5.0 10.0 0.00 0.00 0.00 77 1015.5
20260831190033 61 24 4.0 12.0 0.00 0.00 0.00 78 1015.6
20260831184531 60 78 6.0 11.0 0.00 0.00 0.00 80 1015.7
20260831183027 59 115 5.0 11.0 0.00 0.00 0.00 82 1015.8
20260831181530 59 71 3.0 9.0 0.00 0.00 0.00 83 1015.9
20260831180023 58 101 1.0 8.0 0.00 0.00 0.00 84 1015.8
20260831174527 58 74 3.0 7.0 0.00 0.00 0.00 84 1015.7
20260831173019 58 60 2.0 7.0 0.00 0.00 0.00 84 1015.5
20260831171519 58 126 1.0 6.0 0.00 0.00 0.00 85 1015.4
20260831170017 58 132 2.0 7.0 0.00 0.00 0.00 86 1015.6
20260831164515 57 47 2.0 7.0 0.00 0.00 0.00 86 1015.5
20260831163020 58 83 3.0 6.0 0.00 0.00 0.00 85 1015.3
20260831161512 57 186 1.0 9.0 0.00 0.00 0.00 86 1015.3
20260831160011 57 107 4.0 8.0 0.00 0.00 0.00 86 1015.2
20260831154513 57 97 3.0 8.0 0.00 0.00 0.00 86 1015.0
20260831153016 57 86 3.0 8.0 0.00 0.00 0.00 86 1015.0
20260831151509 56 125 4.0 6.0 0.00 0.00 0.00 87 1015.0
20260831150005 56 113 2.0 6.0 0.00 0.00 0.00 88 1014.9
20260831144505 56 59 1.0 3.0 0.00 0.00 0.00 88 1014.7
20260831143003 56 123 0.0 0.0 0.00 0.00 0.00 88 1014.7
20260831141615 56 41 2.0 6.0 0.00 0.00 0.00 89 1014.5
20260831140058 56 85 2.0 8.0 0.00 0.00 0.00 89 1014.3
20260831134604 56 67 2.0 5.0 0.00 0.00 0.00 89 1014.0
20260831133056 56 84 3.0 6.0 0.00 0.00 0.00 89 1013.7
20260831131600 56 49 2.0 5.0 0.00 0.00 0.00 88 1013.7
20260831130057 56 5 1.0 7.0 0.00 0.00 0.00 88 1013.9
20260831124603 56 80 0.0 4.0 0.00 0.00 0.00 89 1013.9
20260831123052 56 84 0.0 4.0 0.00 0.00 0.00 89 1013.5
20260831121552 56 115 4.0 7.0 0.00 0.00 0.00 89 1013.4
20260831120050 56 118 0.0 6.0 0.00 0.00 0.00 89 1013.5
20260831114549 56 78 2.0 4.0 0.00 0.00 0.00 89 1013.5